Weather History for Rogers, AR

Change the Weather History Date:

Monday, July 22, 2013

  Actual Average Record
Temperature  
Mean Temperature 78 °F -  
Max Temperature 89 °F 84 °F 100 °F (2011)
Min Temperature 66 °F 67 °F 62 °F (2006)
Cooling Degree Days 12    
Growing Degree Days 28 (Base 50)    
Moisture  
Dew Point 66 °F    
Average Humidity 78    
Maximum Humidity 94    
Minimum Humidity 52    
Precipitation  
Precipitation 1.65 in - - ()
Sea Level Pressure  
Sea Level Pressure 29.93 in    
Wind  
Wind Speed 11 mph (South)    
Max Wind Speed 29 mph    
Max Gust Speed 45 mph    
Visibility 9 miles    
Events Rain , Thunderstorm    
Averages and records for this station are not official NWS values.
T = Trace of Precipitation, MM = Missing Value Source: NWS Daily Summary

Daily Weather History Graph

Daily Weather History Graph

Search for Another Location

Airport:

Trip Planner

Search our weather history database for the weather conditions in past years. The results will help you decide how hot, cold, wet, or windy it might be!

Date:

Astronomy

Jul. 22, 2013 Rise Set
Actual Time 6:15 AM CDT 8:29 PM CDT
Civil Twilight 5:46 AM CDT 8:59 PM CDT
Nautical Twilight 5:10 AM CDT 9:34 PM CDT
Astronomical Twilight 4:31 AM CDT 10:13 PM CDT
Moon 8:19 PM CDT (7/22) 6:10 AM CDT (7/22)
Length of Visible Light 15h 12m
Length of Day
14h 14m
Full, 100% of the Moon is Illuminated
Jul 22
Full
Jul 22
Full
Jul 29
Last Quarter
Aug 6
New
Aug 14
First Quarter

Hourly Weather History & Observations

Time (CDT) Temp. Heat Index Dew Point Humidity Pressure Visibility Wind Dir Wind Speed Gust Speed Precip Events Conditions
12:17 AM 75.2 °F - 71.6 °F 89% 29.90 in 10.0 mi South 4.6 mph - N/A Thunderstorm Scattered Clouds
12:52 AM 77.0 °F - 71.6 °F 83% 29.93 in 8.0 mi North 25.3 mph 44.9 mph 0.06 in Rain , Thunderstorm Heavy Thunderstorms and Rain
12:57 AM 78.1 °F - 70.0 °F 76% 29.89 in 5.0 mi Variable 5.8 mph 44.9 mph 0.20 in Rain , Thunderstorm Heavy Thunderstorms and Rain
1:10 AM 73.4 °F - 66.2 °F 78% 29.94 in 2.5 mi SW 16.1 mph 31.1 mph 0.60 in Rain , Thunderstorm Heavy Thunderstorms and Rain
1:14 AM 71.6 °F - 66.2 °F 83% 29.92 in 2.5 mi SSW 20.7 mph 31.1 mph 0.79 in Rain , Thunderstorm Heavy Thunderstorms and Rain
1:24 AM 71.6 °F - 68.0 °F 88% 29.93 in 3.0 mi South 12.7 mph - 1.04 in Rain , Thunderstorm Thunderstorms and Rain
1:29 AM 71.6 °F - 66.2 °F 83% 29.92 in 10.0 mi SW 8.1 mph - 1.05 in Rain , Thunderstorm Light Thunderstorms and Rain
1:32 AM 71.6 °F - 68.0 °F 88% 29.92 in 10.0 mi Variable 4.6 mph - 1.05 in Rain , Thunderstorm Light Thunderstorms and Rain
1:57 AM 73.0 °F - 69.1 °F 87% 29.87 in 10.0 mi Calm Calm - 1.05 in Thunderstorm Mostly Cloudy
2:18 AM 71.6 °F - 69.8 °F 94% 29.91 in 10.0 mi SSE 5.8 mph - N/A   Scattered Clouds
2:57 AM 73.0 °F - 70.0 °F 90% 29.87 in 10.0 mi SSE 5.8 mph - N/A   Mostly Cloudy
3:57 AM 72.0 °F - 66.9 °F 84% 29.85 in 10.0 mi South 5.8 mph - N/A   Clear
4:57 AM 71.1 °F - 66.0 °F 84% 29.86 in 10.0 mi Calm Calm - N/A   Scattered Clouds
5:42 AM 71.6 °F - 64.4 °F 78% 29.96 in 10.0 mi NNE 11.5 mph - N/A   Overcast
5:48 AM 71.6 °F - 64.4 °F 78% 29.97 in 10.0 mi NNE 18.4 mph 23.0 mph N/A Thunderstorm Overcast
5:57 AM 70.0 °F - 63.0 °F 78% 29.94 in 10.0 mi North 12.7 mph 27.6 mph N/A Thunderstorm Overcast
6:04 AM 69.8 °F - 62.6 °F 78% 29.97 in 10.0 mi NE 21.9 mph 28.8 mph N/A   Overcast
6:32 AM 68.0 °F - 62.6 °F 83% 30.01 in 10.0 mi NE 11.5 mph - N/A Thunderstorm Thunderstorm
6:57 AM 66.9 °F - 62.1 °F 84% 29.96 in 10.0 mi ENE 15.0 mph 20.7 mph N/A Thunderstorm Overcast
7:06 AM 66.2 °F - 62.6 °F 88% 29.99 in 10.0 mi East 13.8 mph 20.7 mph 0.00 in Rain Light Rain
7:12 AM 66.2 °F - 62.6 °F 88% 29.99 in 10.0 mi East 16.1 mph - 0.00 in Rain , Thunderstorm Light Rain
7:57 AM 66.9 °F - 62.1 °F 84% 29.96 in 10.0 mi East 15.0 mph - 0.00 in Thunderstorm Overcast
8:20 AM 66.2 °F - 62.6 °F 88% 30.00 in 9.0 mi East 12.7 mph 20.7 mph N/A   Mostly Cloudy
8:26 AM 66.2 °F - 62.6 °F 88% 30.01 in 9.0 mi East 10.4 mph - N/A Thunderstorm Mostly Cloudy
8:57 AM 68.0 °F - 63.0 °F 84% 29.95 in 10.0 mi SE 15.0 mph - N/A Thunderstorm Mostly Cloudy
9:16 AM 69.8 °F - 62.6 °F 78% 29.98 in 10.0 mi SSE 15.0 mph - 0.00 in Rain Light Rain
9:48 AM 69.8 °F - 62.6 °F 78% 29.99 in 10.0 mi Variable 4.6 mph - 0.00 in Thunderstorm Partly Cloudy
9:57 AM 70.0 °F - 63.0 °F 78% 29.99 in 10.0 mi WNW 16.1 mph - 0.00 in Thunderstorm Mostly Cloudy
10:57 AM 68.0 °F - 62.1 °F 81% 29.97 in 10.0 mi West 19.6 mph 26.5 mph 0.36 in Rain , Thunderstorm Heavy Thunderstorms and Rain
11:29 AM 68.0 °F - 64.4 °F 88% 30.02 in 10.0 mi SSW 6.9 mph - 0.02 in Rain Light Rain
11:39 AM 69.8 °F - 62.6 °F 78% 30.02 in 10.0 mi WSW 9.2 mph - 0.03 in Rain , Thunderstorm Light Rain
11:57 AM 68.0 °F - 63.0 °F 84% 29.98 in 10.0 mi SSW 13.8 mph - 0.03 in Rain , Thunderstorm Light Rain
12:17 PM 68.0 °F - 62.6 °F 83% 29.96 in 10.0 mi South 28.8 mph 32.2 mph 0.00 in Rain Light Rain
12:36 PM 69.8 °F - 62.6 °F 78% 29.97 in 10.0 mi Variable 6.9 mph - 0.00 in Rain , Thunderstorm Light Rain
12:51 PM 71.6 °F - 62.6 °F 73% 29.95 in 10.0 mi ESE 6.9 mph - 0.01 in Rain Light Rain
12:57 PM 71.1 °F - 64.0 °F 78% 29.91 in 10.0 mi NE 8.1 mph - 0.01 in   Mostly Cloudy
1:57 PM 80.1 °F 82.1 °F 66.0 °F 62% 29.92 in 10.0 mi SW 8.1 mph - N/A   Clear
2:57 PM 84.9 °F 87.6 °F 66.9 °F 55% 29.91 in 10.0 mi West 4.6 mph - N/A   Clear
3:57 PM 81.0 °F 84.4 °F 70.0 °F 69% 29.92 in 10.0 mi NNW 6.9 mph - N/A   Clear
4:57 PM 82.9 °F 87.0 °F 70.0 °F 65% 29.87 in 10.0 mi NW 8.1 mph - N/A   Partly Cloudy
5:57 PM 89.1 °F 93.7 °F 69.1 °F 52% 29.85 in 10.0 mi SSW 9.2 mph - N/A   Clear
6:57 PM 87.1 °F 92.0 °F 70.0 °F 57% 29.86 in 10.0 mi SW 12.7 mph - N/A   Clear
7:57 PM 84.0 °F 89.0 °F 71.1 °F 65% 29.87 in 10.0 mi SSW 6.9 mph - N/A   Clear
8:57 PM 80.1 °F 82.3 °F 66.9 °F 64% 29.86 in 10.0 mi South 5.8 mph - N/A   Clear
9:57 PM 80.1 °F 81.7 °F 64.0 °F 58% 29.86 in 10.0 mi South 5.8 mph - N/A   Clear
10:57 PM 78.1 °F - 66.0 °F 66% 29.88 in 10.0 mi South 5.8 mph - N/A   Clear
11:57 PM 77.0 °F - 66.9 °F 71% 29.90 in 10.0 mi South 4.6 mph - N/A   Clear